Overview Statistics Trail Chart Weather Telemetry Raw packets
 

This is the latest recevied weather packets stored in our database for station/object W4SNA-3. If no packets are shown the sender has not sent any weather packets the latest 10 day(s).

<< 22 23 24 25 26 27 28 >>
Time Temp. Humidity Pressure Rain* Wind** Luminosity Snow
1788457440 30° C 60% 1020.6 hPa 0 mm - - -
1788457112 30.56° C 59% 1020.7 hPa 0 mm - - -
1788456813 30.56° C 55% 1020.7 hPa 0 mm - - -
1788456558 31.11° C 56% 1020.9 hPa 0 mm - - -
1788456055 32.22° C 55% 1020.8 hPa 0 mm - - -
1788455755 32.22° C 55% 1020.8 hPa 0 mm - - -
1788455463 31.67° C 55% 1020.8 hPa 0 mm - - -
1788455156 31.67° C 58% 1020.8 hPa 0 mm - - -
1788454876 32.22° C 53% 1020.8 hPa 0 mm - - -
1788454525 32.22° C 55% 1020.8 hPa 0 mm - - -
1788454257 32.22° C 56% 1020.9 hPa 0 mm - - -
1788453925 32.78° C 57% 1020.9 hPa 0 mm - - -
1788453625 32.78° C 55% 1021 hPa 0 mm - - -
1788453325 32.22° C 55% 1021 hPa 0 mm - - -
1788453025 32.22° C 56% 1021 hPa 0 mm - - -
1788452726 32.22° C 55% 1021.2 hPa 0 mm - - -
1788452425 32.22° C 57% 1021.1 hPa 0 mm - - -
1788452132 32.22° C 59% 1021.1 hPa 0 mm - - -
1788451826 31.67° C 60% 1021.1 hPa 0 mm - - -
1788451526 31.67° C 61% 1021.2 hPa 0 mm - - -
1788451225 31.67° C 61% 1021.2 hPa 0 mm - - -
1788450917 31.67° C 58% 1021.3 hPa 0 mm - - -
1788450614 31.67° C 59% 1021.3 hPa 0 mm - - -
1788450308 31.67° C 59% 1021.3 hPa 0 mm - - -
1788450008 31.67° C 60% 1021.3 hPa 0 mm - - -

* Rain latest hour (hover to see other rain measurements)
** Current wind speed in m/s (hover to see current wind gust speed)